This demonstration page uses our WeatherBlox Daily Observations layout. Learn more.

Left ArrowRight Arrow

36.17497, -115.13722

Hourly Observations for April 8, 2020

Temp ( °F °C ) Dew Point ( °F °C ) Humidity (%) Winds ( mph kmh ) Pressure ( in mb ) Visibility ( mi km ) Precip ( " mm )
12:53 am 00:53 Clear 53 11.7 41 5 64 64 WNW 6 9 29.98 1015 10 16 N/A
1:53 am 01:53 Clear 52 11.1 41 5 66 66 NW 5 7 29.98 1015 10 16 N/A
2:53 am 02:53 Clear 51 10.6 41 5 69 69 WNW 5 7 29.96 1015 10 16 N/A
3:53 am 03:53 Clear 50 10 40 4.4 68 68 NW 6 9 29.94 1014 10 16 N/A
4:53 am 04:53 Clear 51 10.6 40 4.4 66 66 W 3 6 29.93 1013 10 16 N/A
5:53 am 05:53 Clear 50 10 40 4.4 68 68 WNW 3 6 29.93 1013 10 16 N/A
6:53 am 06:53 Sunny 52 11.1 40 4.4 64 64 W 5 7 29.93 1014 10 16 N/A
7:53 am 07:53 Sunny 57 13.9 41 5 55 55 SSW 5 7 29.96 1014 10 16 N/A
8:53 am 08:53 Sunny 60 15.6 40 4.4 47 47 SSE 6 9 29.96 1015 10 16 N/A
9:53 am 09:53 Sunny 65 18.3 37 2.8 36 36 E 10 17 29.96 1015 10 16 N/A
10:53 am 10:53 Sunny 69 20.6 33 0.6 26 26 SE 13 20 29.96 1015 10 16 N/A
11:53 am 11:53 Sunny 69 20.6 33 0.6 26 26 SE 7 11 29.93 1014 10 16 N/A
12:53 pm 12:53 Sunny 71 21.7 33 0.6 25 25 ESE 10 17 29.89 1012 10 16 N/A
1:53 pm 13:53 Mostly Cloudy 71 21.7 33 0.6 25 25 E 12 19 29.86 1011 10 16 N/A
2:38 pm 14:38 Mostly Cloudy 65 18.3 35 1.7 33 33 SSW 29 46 29.79 1009 10 16 N/A
2:53 pm 14:53 Partly Cloudy with Nearby Thunderstorms 65 18.3 35 1.7 33 33 SSW 26 43 29.90 1013 10 16 N/A
3:15 pm 15:15 Partly Cloudy 61 16.1 37 2.8 41 41 SSW 28 44 29.86 1011 10 16 N/A
3:53 pm 15:53 Cloudy 58 14.4 37 2.8 46 46 S 20 31 29.98 1015 10 16 0.00 0.00
4:53 pm 16:53 Mostly Cloudy 59 15 33 0.6 38 38 SE 13 20 29.97 1015 10 16 N/A
5:53 pm 17:53 Cloudy 59 15 30 -1.1 33 33 SE 18 30 29.95 1014 10 16 N/A
6:53 pm 18:53 Sunny 56 13.3 33 0.6 42 42 SE 10 17 29.97 1015 10 16 N/A
7:53 pm 19:53 Mostly Clear 55 12.8 36 2.2 49 49 ESE 10 17 30.00 1016 10 16 N/A
8:53 pm 20:53 Clear 54 12.2 37 2.8 53 53 ESE 10 17 30.02 1017 10 16 N/A
9:53 pm 21:53 Clear 53 11.7 38 3.3 57 57 ESE 10 17 30.02 1017 10 16 N/A
10:53 pm 22:53 Mostly Clear 53 11.7 36 2.2 52 52 SSE 9 15 30.03 1017 10 16 N/A
11:53 pm 23:53 Clear 51 10.6 35 1.7 54 54 SSE 7 11 30.04 1017 10 16 N/A

Powered by AerisWeather